SP2WM Weather Reports


time (UTC)temp
C
wind
direction
speed
KPH
gust
KPH
rain 1hr
cm
rain 24hr
cm
rain mn
cm
humidity
%
barometer
mb
20260506112033 21 144 6.4 20.9 0.00 0.20 0.00 59 1002.0
20260506111040 20 144 8.0 14.5 0.00 0.20 0.00 58 1002.0
20260506110040 20 143 4.8 20.9 0.00 0.20 0.00 60 1002.0
20260506105038 20 146 8.0 22.5 0.00 0.20 0.00 60 1001.9
20260506104028 20 144 8.0 16.1 0.00 0.20 0.00 60 1002.0
20260506103027 20 145 8.0 12.9 0.00 0.20 0.00 59 1001.9
20260506102028 20 145 3.2 12.9 0.00 0.20 0.00 61 1001.8
20260506101034 20 145 3.2 11.3 0.00 0.20 0.00 62 1001.8
20260506100114 20 145 4.8 11.3 0.00 0.20 0.00 61 1001.8
20260506095027 20 145 3.2 9.7 0.00 0.20 0.00 62 1001.7
20260506094035 19 145 4.8 14.5 0.00 0.20 0.00 63 1001.7
20260506093033 19 145 6.4 16.1 0.00 0.20 0.00 63 1001.6
20260506092035 18 145 3.2 14.5 0.00 0.20 0.00 65 1001.7
20260506091043 18 144 1.6 9.7 0.00 0.20 0.00 65 1001.7
20260506090042 18 144 4.8 12.9 0.00 0.20 0.00 66 1001.7
20260506085038 17 144 6.4 16.1 0.00 0.20 0.00 66 1001.7
20260506084028 17 144 3.2 19.3 0.00 0.20 0.00 65 1001.7
20260506082036 17 146 6.4 19.3 0.00 0.20 0.00 64 1001.9
20260506081043 18 144 8.0 12.9 0.00 0.20 0.00 63 1001.6
20260506073025 16 143 1.6 11.3 0.00 0.20 0.00 69 1001.5
20260506072043 15 143 8.0 14.5 0.00 0.20 0.00 70 1001.4
20260506071030 15 143 3.2 11.3 0.00 0.20 0.00 71 1001.5
20260506062037 13 143 3.2 11.3 0.00 0.20 0.00 76 1002.1
20260506061028 13 143 4.8 11.3 0.00 0.20 0.00 75 1002.2
20260506051032 12 143 1.6 4.8 0.00 0.20 0.00 80 1002.8
20260506045025 11 143 0.0 8.0 0.00 0.20 0.00 82 1002.7
20260506044032 11 143 1.6 9.7 0.00 0.20 0.00 83 1002.9
20260506043035 11 143 3.2 8.0 0.00 0.20 0.00 84 1002.8
20260506042035 11 143 1.6 8.0 0.00 0.20 0.00 84 1002.8
20260506041040 11 143 0.0 6.4 0.00 0.20 0.05 85 1003.2
20260506040038 10 143 1.6 4.8 0.00 0.20 0.05 86 1003.2
20260506035040 10 143 1.6 6.4 0.00 0.20 0.05 87 1003.2
20260506034025 10 143 1.6 4.8 0.00 0.20 0.05 87 1003.3
20260506033025 10 143 1.6 4.8 0.00 0.20 0.05 87 1003.3
20260506032042 10 143 1.6 4.8 0.00 0.20 0.05 88 1003.4
20260506031029 10 143 1.6 4.8 0.00 0.20 0.05 88 1003.6
20260506030026 10 143 0.0 3.2 0.00 0.20 0.05 88 1003.6
20260506025026 10 143 1.6 3.2 0.00 0.20 0.05 89 1003.7
20260506024031 10 143 1.6 4.8 0.00 0.20 0.05 89 1003.7
20260506023044 10 143 1.6 4.8 0.00 0.20 0.05 89 1003.7
20260506022040 10 143 0.0 1.6 0.00 0.20 0.05 89 1003.9
20260506021030 10 143 0.0 3.2 0.00 0.20 0.05 89 1004.0
20260506020025 10 143 1.6 3.2 0.00 0.20 0.05 89 1004.1
20260506015039 10 143 1.6 3.2 0.00 0.20 0.05 88 1004.3
20260506014026 10 143 1.6 3.2 0.00 0.20 0.05 88 1004.3
20260506013025 10 143 0.0 1.6 0.00 0.20 0.05 87 1004.4
20260506012026 10 143 0.0 1.6 0.00 0.20 0.05 87 1004.5
20260506011032 11 143 0.0 4.8 0.00 0.20 0.05 87 1004.6
20260506005042 11 143 0.0 1.6 0.00 0.20 0.05 85 1004.5
20260506004029 11 143 1.6 6.4 0.00 0.20 0.05 85 1004.5
20260506003026 11 143 0.0 1.6 0.00 0.20 0.05 84 1004.4
20260506002024 11 143 0.0 1.6 0.00 0.20 0.05 84 1004.5
20260506001025 11 143 0.0 1.6 0.00 0.20 0.05 84 1004.5
20260506000024 11 143 0.0 1.6 0.00 0.20 0.05 84 1004.5
20260505235040 11 143 0.0 1.6 0.00 0.20 0.05 84 1004.5
20260505234033 11 143 0.0 1.6 0.00 0.20 0.05 83 1004.5
20260505233030 11 143 0.0 1.6 0.00 0.20 0.05 83 1004.6
20260505232031 11 143 0.0 1.6 0.00 0.20 0.05 82 1004.6
20260505231036 11 143 0.0 1.6 0.00 0.20 0.05 82 1004.6
20260505230033 11 143 0.0 1.6 0.00 0.20 0.05 81 1004.7
20260505225036 11 143 0.0 1.6 0.00 0.20 0.05 81 1004.6
20260505224044 12 143 0.0 1.6 0.00 0.20 0.05 80 1004.7
20260505223024 12 143 0.0 1.6 0.00 0.20 0.05 79 1004.7
20260505222039 12 143 0.0 1.6 0.00 0.20 0.05 79 1004.8
20260505221043 12 143 0.0 1.6 0.00 0.20 0.05 78 1004.8
20260505220043 12 143 0.0 1.6 0.00 0.20 0.05 77 1004.9
20260505215041 12 143 0.0 1.6 0.00 0.20 0.05 77 1004.8
20260505214028 12 143 0.0 1.6 0.00 0.20 0.05 76 1004.9
20260505213027 12 143 0.0 3.2 0.00 0.20 0.05 76 1004.9
20260505212029 12 143 0.0 1.6 0.00 0.20 0.05 75 1005.0
20260505211037 13 143 0.0 3.2 0.00 0.20 0.05 75 1005.1
20260505210033 13 143 0.0 1.6 0.00 0.20 0.05 74 1005.2
20260505205030 13 143 0.0 1.6 0.00 0.20 0.05 74 1005.0
20260505204037 13 143 0.0 1.6 0.00 0.20 0.05 74 1005.1
20260505203116 13 143 0.0 4.8 0.00 0.20 0.05 74 1005.2
20260505202033 13 143 0.0 3.2 0.00 0.20 0.05 73 1005.2
20260505201041 13 143 0.0 3.2 0.00 0.20 0.05 72 1005.1
20260505200041 13 143 0.0 4.8 0.00 0.20 0.05 71 1005.0
20260505195038 13 143 1.6 4.8 0.00 0.20 0.05 71 1005.0
20260505194045 13 143 0.0 4.8 0.00 0.20 0.05 71 1005.1
20260505193024 13 143 0.0 4.8 0.00 0.20 0.05 71 1005.2
20260505192041 13 143 1.6 4.8 0.00 0.20 0.05 71 1005.2
20260505191027 13 143 0.0 4.8 0.00 0.20 0.05 70 1005.2
20260505190044 13 143 1.6 6.4 0.00 0.20 0.05 69 1005.3
20260505185038 14 143 0.0 8.0 0.00 0.20 0.05 68 1005.4
20260505184027 14 143 1.6 4.8 0.00 0.20 0.05 68 1005.2
20260505183024 14 143 0.0 3.2 0.00 0.20 0.05 67 1005.2
20260505182044 14 143 1.6 6.4 0.00 0.20 0.05 67 1004.9
20260505181028 15 143 1.6 6.4 0.00 0.20 0.05 66 1005.0
20260505180031 15 143 1.6 9.7 0.00 0.20 0.05 66 1004.9
20260505175029 15 143 1.6 8.0 0.00 0.20 0.05 66 1004.8
20260505174036 15 143 1.6 6.4 0.00 0.20 0.05 66 1004.9
20260505173034 15 143 1.6 4.8 0.00 0.20 0.05 65 1004.9
20260505172029 15 143 1.6 8.0 0.00 0.20 0.05 64 1005.2
20260505171040 16 143 3.2 8.0 0.00 0.20 0.05 62 1005.1
20260505170038 16 143 0.0 11.3 0.00 0.20 0.05 61 1004.9
20260505165033 17 143 1.6 9.7 0.00 0.20 0.05 61 1004.9
20260505164041 17 143 1.6 8.0 0.00 0.20 0.05 61 1004.8
20260505163032 18 143 1.6 9.7 0.00 0.20 0.05 62 1004.8
20260505162026 18 143 1.6 8.0 0.00 0.20 0.05 61 1004.8
20260505161033 18 143 1.6 8.0 0.00 0.20 0.05 61 1004.8
20260505153030 21 143 1.6 8.0 0.00 0.20 0.05 61 1004.7
20260505152025 21 143 1.6 8.0 0.00 0.20 0.05 62 1004.8
20260505151034 21 144 0.0 8.0 0.00 0.20 0.05 62 1004.7
20260505125027 23 143 0.0 1.6 0.20 0.20 0.05 71 1005.5
20260505124031 23 143 0.0 1.6 0.10 0.10 0.03 65 1005.6
20260505123029 25 143 0.0 1.6 0.00 0.00 0.00 57 1005.7
20260505122031 25 143 0.0 4.8 0.00 0.00 0.00 53 1005.5
20260505121037 25 143 0.0 1.6 0.00 0.00 0.00 51 1005.7
20260505120034 26 143 0.0 3.2 0.00 0.00 0.00 50 1005.7
20260505115032 26 143 0.0 3.2 0.00 0.00 0.00 50 1005.8
20260505114038 26 143 3.2 8.0 0.00 0.00 0.00 48 1005.7
20260505113040 26 143 0.0 4.8 0.00 0.00 0.00 52 1005.9